sat.trackr.live / text

‹ back to catalog

STARLINK-31908

NORAD 59901 · 2024-100S

PAYLOAD ACTIVE UNKNOWN

§ Identity

Operator
Country
US
Launch date
2024-05-28
Launch site
AFETR
Launch vehicle
Mass (kg)
RCS (m²)

Purposes: comms

External: N2YO · Heavens-Above · Gunter

§ Orbital elements

Epoch: 2026-09-21T21:12:37.019520Z

Period
94.27 min
Inclination
43.0037°
Eccentricity
0.0001090
Mean motion
15.27577100 rev/d
Perigee alt
482.3 km
Apogee alt
483.8 km
Semi-major
6,861.2 km
B*
1.4264e-5
RAAN
90.3513°
Arg perigee
276.2605°
Mean anomaly
83.8122°
Rev number
13,123

§ Raw data

STARLINK-319081 59901U 24100S   26264.88376180  .00000130  00000+0  14264-4 0  99962 59901  43.0037  90.3513 0001090 276.2605  83.8122 15.27577100131231

JSON: /api/v1/satellites/59901 · /tle

For live sub-satellite position, see the globe view (requires WebGL).

§ Visibility from observer

Set your observer location to see the next 7 days of passes ≥ 10°. The values pass through the URL so the page stays shareable.

No JS? Fill the form by hand. The geolocation button needs JavaScript.